Terminal Aerodrome Forecast
Issued by NWS

Home | Current Version | Previous Version | Text Only | Print | Product List | Glossary On
Versions: 1 2 3 4 5 6 7 8 9 10 11 12 13
000
FTUS42 TJSJ 292320
TAFJSJ
TAF
TJSJ 292320Z 3000/3024 09011KT P6SM VCSH SCT025 BKN050 OVC090
     FM301300 09012G20KT P6SM VCSH SCT020 SCT040 BKN060
     FM302300 08009KT P6SM -SHRA SCT026 SCT040 BKN060=

USA.gov is the U.S. government's official web portal to all federal, state and local government web resources and services.